This is the latest recevied weather packets stored in our database for station/object WB5RFA. If no packets are shown the sender has not sent any weather packets the latest 10 day(s).
| Time | Temp. | Humidity | Pressure | Rain* | Wind** | Luminosity | Snow |
|---|---|---|---|---|---|---|---|
| 1777836790 | 25.56° C | 43% | 1008.6 hPa | 0 mm | - | - | - |
| 1777836312 | 25.56° C | 43% | 1008.7 hPa | 0 mm | - | - | - |
| 1777835831 | 25.56° C | 42% | 1008.9 hPa | 0 mm | - | - | - |
| 1777835350 | 25° C | 46% | 1009 hPa | 0 mm | - | - | - |
| 1777834871 | 25° C | 43% | 1009.2 hPa | 0 mm | - | - | - |
| 1777834391 | 25° C | 42% | 1009.2 hPa | 0 mm | - | - | - |
| 1777833910 | 25° C | 43% | 1009.4 hPa | 0 mm | - | - | - |
| 1777833431 | 25° C | 43% | 1009.6 hPa | 0 mm | - | - | - |
| 1777832950 | 24.44° C | 44% | 1009.7 hPa | 0 mm | - | - | - |
| 1777832471 | 23.89° C | 43% | 1009.9 hPa | 0 mm | - | - | - |
| 1777831991 | 24.44° C | 42% | 1010 hPa | 0 mm | - | - | - |
| 1777831511 | 23.89° C | 44% | 1010 hPa | 0 mm | - | - | - |
| 1777831030 | 23.33° C | 44% | 1010.2 hPa | 0 mm | - | - | - |
| 1777830550 | 23.33° C | 44% | 1010.4 hPa | 0 mm | - | - | - |
| 1777830072 | 23.33° C | 44% | 1010.4 hPa | 0 mm | - | - | - |
| 1777829591 | 23.33° C | 45% | 1010.5 hPa | 0 mm | - | - | - |
| 1777829110 | 22.78° C | 45% | 1010.5 hPa | 0 mm | - | - | - |
| 1777828631 | 22.78° C | 45% | 1010.8 hPa | 0 mm | - | - | - |
| 1777828151 | 22.22° C | 46% | 1011 hPa | 0 mm | - | - | - |
| 1777827670 | 22.22° C | 49% | 1011.1 hPa | 0 mm | - | - | - |
| 1777827192 | 21.67° C | 49% | 1011.1 hPa | 0 mm | - | - | - |
| 1777826711 | 21.67° C | 49% | 1011.2 hPa | 0 mm | - | - | - |
| 1777826230 | 21.11° C | 48% | 1011.5 hPa | 0 mm | - | - | - |
| 1777825751 | 21.11° C | 49% | 1011.6 hPa | 0 mm | - | - | - |
| 1777825270 | 20.56° C | 51% | 1011.7 hPa | 0 mm | - | - | - |
* Rain latest hour (hover to see other rain measurements)
** Current wind speed in m/s (hover to see current wind gust speed)